www.pogodaiklimat.ru

Погода и климат >> Архив погоды >> Россия >> Челябинская область >> Челябинск


АРХИВ ПОГОДЫ в Челябинске

Время (UTC), дата Ветер
(напр.,м/с)
 
Видим.   Явления Облачность Т
(С)
Тd
(С)
f
(%)
Тe
(С)
Тes
(С)
Комфортность P
(гПа)
Po
(гПа)
Тmin
(С)
Tmax
(С)
R
(мм)
R24
(мм)
S
(см)
00 13.08 СВ 1 20 км 10/10 600 м
[Sc]
+18.0 +12.6 71 +19 +19 тепло 996.5 969.7
03 13.08 СВ 2 10 км 9/9 300 м
[Cb calv]
+18.8 +12.9 69 +20 +20 тепло 997.4 970.7 +18.0
06 13.08 С 2 10 км {ливн. осадки} 10/10 300 м
[Cb calv]
+17.9 +15.0 83 +18 +18 прохладно 998.4 971.6 +17.1
09 13.08 С 2 10 км 10/10 300 м
[Cb calv]
+19.5 +15.3 77 +22 +22 комфорт 999.2 972.5
12 13.08 С 2 10 км {ливн. осадки} 10/10 300 м
[Cb calv]
+20.3 +14.5 69 +23 +23 комфорт 999.8 973.2
15 13.08 С 2 10 км {ливн. осадки} 10/10 300 м
[Cb calv]
+18.2 +14.4 78 +19 +19 прохладно 1000.7 973.8 +20.4 2
18 13.08 С 2 10 км гроза без осадков {ливн. осадки} 5/5 300 м
[Cb calv]
+18.4 +13.1 71 +19 +19 тепло 1001.2 974.3
21 13.08 СВ 3 10 км {гроза, ливн. осадки} 3/3 300 м
[Cb calv]
+17.9 +13.1 73 +18 +18 тепло 1001.5 974.5
00 14.08 СВ 1 20 км {гроза} 10/10 300 м
[Cb calv]
+15.5 +12.6 83 +16 +16 по сезону 1004.3 977.0
03 14.08 СВ 1 10 км 6/0
[Ci fib]
+17.6 +13.2 75 +19 +21 тепло 1006.3 979.2 +15.0 1
06 14.08 СВ 3 10 км 8/8 300 м
[Cb calv]
+20.4 +13.9 66 +23 +25 комфорт 1007.5 980.7
09 14.08 СВ 1 10 км 10/10 300 м
[Cb calv]
+19.5 +12.3 63 +22 +22 комфорт 1008.4 981.5
12 14.08 СВ 2 10 км 8/8 300 м
[Cb calv]
+21.8 +12.8 57 +24 +25 комфорт 1008.6 981.9
15 14.08 СВ 1 10 км 8/8 300 м
[Cb calv]
+20.4 +13.9 66 +24 +24 комфорт 1010.1 983.1 +23.4
18 14.08 С 1 10 км 8/8 300 м
[Cb calv]
+18.4 +13.5 73 +20 +20 тепло 1011.1 983.9
21 14.08 С 1 10 км ясно +15.4 +13.1 86 +16 +16 по сезону 1011.2 983.8
00 15.08 СЗ 2 20 км ясно +13.7 +12.1 90 +13 +13 по сезону 1012.9 985.2
03 15.08 С 1 10 км ясно +16.8 +12.5 76 +18 +21 по сезону 1013.8 986.4 +13.1
06 15.08 СЗ 2 20 км 3/3 300 м
[Cb calv]
+22.0 +10.8 49 +24 +31 комфорт 1013.9 987.0
09 15.08 СВ 3 20 км 5/5 300 м
[Cb calv]
+24.5 +7.8 34 +25 +30 комфорт 1013.6 986.9
12 15.08 СЗ 3 20 км 4/4 300 м
[Cb calv]
+24.6 +9.1 37 +25 +28 комфорт 1013.4 986.7
15 15.08 СЗ 2 10 км 4/4 300 м
[Cb calv]
+22.2 +11.2 50 +24 +24 комфорт 1014.0 987.1 +25.2
18 15.08 штиль 0 10 км 6/6 300 м
[Cb calv]
+17.8 +13.5 76 +18 +18 по сезону 1015.7 988.4
21 15.08 СЗ 1 10 км ясно +14.8 +13.3 91 +15 +15 по сезону 1016.2 988.6
00 16.08 СЗ 1 20 км ясно +14.2 +12.7 91 +14 +14 по сезону 1017.1 989.4
03 16.08 СЗ 1 10 км 3/0
[Ci fib]
+17.1 +13.8 81 +18 +21 по сезону 1017.5 990.0 +13.6
06 16.08 С 2 10 км 5/0
[Cc]
+23.3 +13.7 55 +27 +36 душно 1016.9 990.1
09 16.08 З 1 10 км 8/5 300 м
[Cu med, cong Ci fib]
+25.7 +11.8 42 +27 +33 жарко 1015.8 989.2
12 16.08 З 1 10 км 3/3 300 м
[Cu hum]
+26.4 +11.0 38 +27 +31 жарко 1015.1 988.6
15 16.08 штиль 0 10 км 5/0
[Ci fib]
+22.4 +10.2 46 +24 +24 комфорт 1015.8 988.9 +26.6
18 16.08 штиль 0 10 км ясно +17.5 +12.8 74 +18 +18 по сезону 1017.0 989.6
21 16.08 штиль 0 10 км 5/0
[Ci fib]
+15.6 +13.4 87 +15 +15 по сезону 1017.7 990.1
00 17.08 З 1 10 км 5/0
[Ac lent Ci fib]
+14.4 +13.0 91 +15 +15 по сезону 1017.9 990.2
03 17.08 штиль 0 10 км 9/0
[Ci fib]
+18.1 +14.7 81 +18 +21 по сезону 1017.8 990.5 +14.3
06 17.08 ЮВ 2 10 км 9/0
[Ci fib]
+22.1 +16.0 68 +26 +34 душно 1017.9 990.9
09 17.08 Ю 1 10 км 10/0
[Ci fib]
+27.6 +14.1 44 +30 +40 жарко 1017.1 990.6
12 17.08 Ю 2 10 км 8/0
[Ci fib]
+27.4 +12.5 40 +29 +33 жарко 1016.7 990.2
15 17.08 штиль 0 10 км 10/0
[Ci fib]
+23.7 +13.4 52 +26 +26 жарко 1017.1 990.3 +28.0
18 17.08 штиль 0 10 км 8/0
[Ci fib]
+20.5 +16.2 76 +23 +23 комфорт 1017.7 990.6
21 17.08 штиль 0 10 км 6/0
[Ci fib]
+19.0 +16.2 84 +20 +20 тепло 1017.9 990.7
00 18.08 штиль 0 20 км 4/0
[Ac lent Ci fib]
+17.7 +15.0 84 +18 +18 тепло 1018.1 990.7
03 18.08 СЗ 1 10 км 9/9 300 м
[Cb calv]
+20.9 +15.5 71 +25 +26 комфорт 1018.3 991.2 +17.5
06 18.08 СЗ 3 10 км 9/0
[Ci fib]
+25.8 +14.7 50 +28 +35 жарко 1018.8 992.2
09 18.08 С 2 10 км 4/0
[Ci fib]
+29.2 +12.3 35 +30 +40 жарко 1018.6 992.2
12 18.08 С 1 10 км 8/0
[Ci fib]
+28.2 +10.7 34 +29 +33 жарко 1019.0 992.5
15 18.08 штиль 0 10 км 10/10 300 м
[Cb calv]
+24.8 +13.8 50 +27 +27 жарко 1020.0 993.2 +30.1
18 18.08 СЗ 1 10 км 6/0
[Ci fib]
+21.7 +14.7 64 +25 +25 комфорт 1021.7 994.6
21 18.08 С 2 10 км 8/0
[Ci fib]
+20.2 +16.8 81 +24 +24 комфорт 1022.9 995.7
00 19.08 С 1 20 км 8/0
[Ci fib]
+19.2 +16.0 82 +22 +22 комфорт 1024.1 996.7
03 19.08 СВ 1 10 км 10/10 300 м
[Cb calv]
+18.7 +16.2 85 +21 +21 комфорт 1025.3 997.8 +18.6
06 19.08 СВ 1 10 км 10/10 300 м
[Sc]
+20.1 +16.2 78 +24 +24 комфорт 1025.7 998.3 +18.3
09 19.08 СВ 1 10 км 8/8 300 м
[Cb calv]
+22.7 +15.5 64 +27 +29 душно 1025.2 998.1
12 19.08 СЗ 2 10 км 8/8 300 м
[Cb calv]
+22.8 +16.0 65 +27 +28 душно 1025.0 997.9
15 19.08 СВ 1 10 км слаб. ливневой дождь 10/10 300 м
[Cb calv]
+21.4 +16.3 73 +25 +25 комфорт 1024.9 997.7 +25.0 0.0
18 19.08 штиль 0 10 км {ливн. осадки} 8/8 300 м
[Cb calv]
+20.3 +14.0 67 +22 +22 комфорт 1025.0 997.7
21 19.08 В 1 10 км 8/8 300 м
[Cb calv]
+19.1 +13.5 70 +21 +21 комфорт 1024.4 996.9

 

Местоположение метеостанции Челябинск (Челябинская область, Россия): широта 55.15 долгота 61.30 высота над уровнем моря 237 м.

В архиве по умолчанию представлена погода в Челябинске за последнюю неделю. Архивные данные за месяц целиком и за предыдущие месяцы, начиная с января 2011 года, Вы можете получить, выбрав интересующий диапазон дат из раскрывающегося списка и нажав кнопку "Ввод!".


*Определитесь, кто Вы:
робот инопланетянин человек

Внимание! Время в таблицах - всемирное. Для получения местного времени необходимо прибавить поправку, которая равна 5 ч.

Смотрите также архив погоды в соседних городах и на ближайших метеорологических станциях:

Погода в Аргаяше (Челябинская область, Россия) (51 км)
Погода в Бродокалмаке (Челябинская область, Россия) (68 км)
Погода в Миассе (Челябинская область, Россия) (79 км)
Погода в Южноуральске (Челябинская область, Россия) (80 км)
Погода в Мирном (Челябинская область, Россия) (92 км)
Погода в Златоусте (Челябинская область, Россия) (104 км)
Погода в Троицке (Челябинская область, Россия) (121 км)
Погода в Верхнем Уфалее (Челябинская область, Россия) (121 км)
Погода в Октябрьском (Челябинская область, Россия) (121 км)
Погода в Шумихе (Курганская область, Россия) (129 км)

Пояснения к столбцам:

Ветер - указаны скорость ветра в м/с - средняя за 10 мин, порывы в срок и между сроками (в фигурных скобках) и направление, откуда дует ветер: С - северный, СВ - северо-восточный, В - восточный, ЮВ - юго-восточный, Ю - южный, ЮЗ - юго-западный, З - западный, СЗ - северо-западный.
Видимость - горизонтальная дальность видимости в метрах или километрах. При видимости от 1 до 10 км при отсутствии осадков обычно наблюдается дымка, при ухудшении видимости до 1 км и менее - туман. В сухую погоду видимость может ухудшаться дымом, пылью или мглою.
Явления - указаны атмосферные явления, наблюдавшиеся в срок или в последний час перед сроком; фигурными скобками обозначены явления, наблюдавшиеся между сроками (за 1-3 часа до срока); квадратными скобками обозначены град или гололедные отложения с указанием их диаметра в мм.
Облачность - указаны через наклонную черту общая и нижняя облачность в баллах и высота нижней границы облаков в метрах; квадратными скобками обозначены формы облаков: Ci - перистые, Cs - перисто-слоистые, Cc - перисто-кучевые, Ac - высококучевые, As - высокослоистые, Sc - слоисто-кучевые, Ns - слоисто-дождевые, Cu - кучевые, Cb - кучево-дождевые. Подробнее классификацию облаков см. в Атласе облаков (PDF).
T - Температура воздуха - температура, измеренная на высоте 2 м над землей.
Td - Температура точки росы - температура, при понижении до которой содержащийся в воздухе водяной пар достигнет насыщения.
f - Относительная влажность воздуха - влажноcть воздуха, измеренная на высоте 2 м над землей.
Te - Эффективная температура - температура, которую ощущает одетый по сезону человек в тени. Характеристика душности погоды. При расчете учитывается влияние влажности воздуха и скорости ветра на теплоощущения человека.
Tes - Эффективная температура на солнце - температура, которую ощущает человек, с поправкой на солнечный нагрев. Характеристика знойности погоды. Зависит от высоты солнца над горизонтом, облачности и скорости ветра. Ночью, в пасмурную погоду, а также при ветре 12 м/с и более поправка равна нулю.
P - Атмосферное давление - приведенное к уровню моря атмосферное давление.
Po - Атмосферное давление - измеренное на уровне метеостанции атмосферное давление.
Tmin - Минимальная температура - минимум температуры воздуха на высоте 2 м над землей.
Tmax - Максимальная температура - максимум температуры воздуха на высоте 2 м над землей.
R - Количество осадков - Количество выпавших осадков за период времени, мм. При наведении курсора мыши на число - период времени, за который выпало указанное количество осадков.
R24 - Количество осадков - Количество выпавших осадков за 24 часа, мм.
S - Снежный покров - Высота снежного покрова, см. При наведении курсора мыши на число - состояние снежного покрова и степень покрытия местности в баллах.